Location: Prague
(50.0830°N, 14.4670°E)
Time: 11:22:21
(UTC+01:00)

AO-7 - Pass Details

Date: 09 December 2021
Orbit: 1440 x 1459 km, 101.9° (Epoch: 29 January)

Event Time Altitude Azimuth Distance (km) Brightness Sun altitude
Rises 05:21:06 0° 18° (NNE) 4,550 ? -22.5°
Reaches altitude 10° 05:23:54 10° 16° (NNE) 3,571 ? -22.1°
Maximum altitude 05:32:05 64° 298° (WNW) 1,584 ? -20.8°
Drops below altitude 10° 05:40:15 10° 219° (SW) 3,566 ? -19.5°
Sets 05:43:03 0° 217° (SW) 4,544 ? -19.1°
